St. Cloud, MN

3:23 AM CST on December 11, 2019 (GMT -0600)
Saint Cloud Regional

Weather History for KSTC - May, 2019

Change the Weather History Date:

Saturday, May 4, 2019

  Actual Average Record
Temperature  
Mean Temperature 53 °F 53 °F  
Max Temperature 71 °F 65 °F 92 °F (1952)
Min Temperature 34 °F 40 °F 19 °F (1967)
Degree Days  
Heating Degree Days 12 13  
Month to date heating degree days 78 53  
Since 1 July heating degree days 8876 8220  
Cooling Degree Days 0 0  
Month to date cooling degree days 0 0  
Year to date cooling degree days 0 2  
Growing Degree Days 2 (Base 50)    
Moisture  
Dew Point 38 °F    
Average Humidity 62    
Maximum Humidity 100    
Minimum Humidity 23    
Precipitation  
Precipitation T in 0.10 in 0.99 in (1912)
Month to date precipitation 0.38 0.39  
Year to date precipitation 7.73 5.75  
Snow  
Snow 0.00 in 0.00 in 0.30 in (1979)
Month to date snowfall 0.0 0.0  
Since 1 July snowfall 68.5 45.7  
Snow Depth 0.00 in    
Sea Level Pressure  
Sea Level Pressure 29.91 in    
Wind  
Wind Speed 7 mph (SSW)    
Max Wind Speed 20 mph    
Max Gust Speed 27 mph    
Visibility 5 miles    
Events Fog    
T = Trace of Precipitation, MM = Missing Value Source: NWS Daily Summary

Daily Weather History Graph

Daily Weather History Graph

Search for Another Location

Airport or City:

Astronomy

May. 04, 2019 Rise Set
Actual Time 6:00 AM CDT 8:26 PM CDT
Civil Twilight 5:26 AM CDT 9:00 PM CDT
Nautical Twilight 4:45 AM CDT 9:41 PM CDT
Astronomical Twilight 3:58 AM CDT 10:28 PM CDT
Moon 6:17 AM CDT (5/4) 8:13 PM CDT (5/4)
Length of Visible Light 15h 33m
Length of Day
14h 26m
Waning Crescent, 0% of the Moon is Illuminated
May 4
Waning Crescent
May 4
New
May 11
First Quarter
May 18
Full
May 26
Last Quarter

Hourly Weather History & Observations

Time (CDT) Temp. Windchill Dew Point Humidity Pressure Visibility Wind Dir Wind Speed Gust Speed Precip Events Conditions
12:41 AM 44.1 °F 42.5 °F 43.0 °F 96% 29.94 in 0.2 mi South 3.5 mph - N/A Fog Fog
12:53 AM 43.0 °F 41.3 °F 43.0 °F 100% 29.98 in 0.2 mi South 3.5 mph - N/A Fog Fog
1:11 AM 43.0 °F - 42.1 °F 97% 29.93 in 0.2 mi Calm Calm - N/A Fog Fog
1:44 AM 41.0 °F - 41.0 °F 100% 29.93 in 0.5 mi Calm Calm - N/A Fog Fog
1:50 AM 41.0 °F - 41.0 °F 100% 29.93 in 0.2 mi Calm Calm - N/A Fog Fog
1:51 AM 41.0 °F - 41.0 °F 100% 29.97 in 0.2 mi Calm Calm - N/A Fog Fog
2:04 AM 39.9 °F - 39.9 °F 100% 29.93 in 0.2 mi Calm Calm - N/A Fog Fog
2:53 AM 39.0 °F - 39.0 °F 100% 29.96 in 0.2 mi Calm Calm - N/A Fog Fog
3:07 AM 37.9 °F - 37.0 °F 97% 29.92 in 0.2 mi Calm Calm - N/A Fog Fog
3:28 AM 37.9 °F - 37.9 °F 100% 29.92 in 0.2 mi Calm Calm - N/A Fog Fog
3:53 AM 37.0 °F - 37.0 °F 100% 29.96 in 0.2 mi Calm Calm - N/A Fog Fog
4:26 AM 37.9 °F - 37.9 °F 100% 29.92 in 0.2 mi Calm Calm - N/A Fog Fog
4:37 AM 37.0 °F 34.5 °F 37.0 °F 100% 29.92 in 0.2 mi SE 3.5 mph - N/A Fog Fog
4:53 AM 37.0 °F - 37.0 °F 100% 29.96 in 0.2 mi Calm Calm - N/A Fog Fog
5:44 AM 35.1 °F - 35.1 °F 100% 29.91 in 0.5 mi Calm Calm - N/A Fog Fog
5:48 AM 35.6 °F - 35.6 °F 100% 29.92 in 0.2 mi Calm Calm - N/A Fog Fog
5:53 AM 35.1 °F 32.2 °F 35.1 °F 100% 29.96 in 0.2 mi SSE 3.5 mph - N/A Fog Fog
6:53 AM 36.0 °F - 36.0 °F 100% 29.97 in 0.2 mi Calm Calm - N/A Fog Fog
7:53 AM 44.1 °F 39.5 °F 42.1 °F 93% 29.97 in 1.0 mi SW 8.1 mph - N/A   Mist
7:55 AM 43.0 °F 38.2 °F 42.1 °F 97% 29.93 in 2.5 mi SW 8.1 mph - N/A   Scattered Clouds
8:02 AM 43.0 °F 41.3 °F 42.1 °F 97% 29.93 in 8.0 mi South 3.5 mph - N/A   Partly Cloudy
8:53 AM 50.0 °F - 46.0 °F 86% 29.97 in 10.0 mi SSW 9.2 mph - N/A   Clear
9:53 AM 59.0 °F - 44.1 °F 58% 29.96 in 10.0 mi SW 9.2 mph - N/A   Clear
10:53 AM 63.0 °F - 39.9 °F 43% 29.96 in 10.0 mi SW 12.7 mph - N/A   Clear
11:53 AM 64.9 °F - 36.0 °F 34% 29.93 in 10.0 mi SW 13.8 mph - N/A   Clear
12:53 PM 66.9 °F - 33.1 °F 28% 29.91 in 10.0 mi SSW 12.7 mph 24.2 mph N/A   Clear
1:53 PM 69.1 °F - 33.1 °F 26% 29.90 in 10.0 mi SSW 12.7 mph 20.7 mph N/A   Clear
2:53 PM 69.1 °F - 30.9 °F 24% 29.88 in 10.0 mi SW 13.8 mph 23.0 mph N/A   Clear
3:53 PM 70.0 °F - 30.9 °F 24% 29.86 in 10.0 mi SW 12.7 mph 20.7 mph N/A   Clear
4:53 PM 69.1 °F - 32.0 °F 25% 29.83 in 10.0 mi SW 10.4 mph - N/A   Clear
5:53 PM 69.1 °F - 32.0 °F 25% 29.83 in 10.0 mi SSW 12.7 mph - N/A   Partly Cloudy
6:53 PM 66.9 °F - 30.9 °F 26% 29.81 in 10.0 mi SSW 10.4 mph - N/A   Clear
7:53 PM 64.0 °F - 34.0 °F 33% 29.81 in 10.0 mi South 6.9 mph - N/A   Partly Cloudy
8:53 PM 61.0 °F - 33.1 °F 35% 29.81 in 10.0 mi South 5.8 mph - N/A   Mostly Cloudy
9:53 PM 57.0 °F - 36.0 °F 45% 29.82 in 10.0 mi Calm Calm - N/A   Overcast
10:53 PM 59.0 °F - 39.0 °F 48% 29.82 in 10.0 mi North 3.5 mph - N/A   Overcast
11:53 PM 54.0 °F - 44.1 °F 69% 29.82 in 10.0 mi North 9.2 mph - 0.00 in   Mostly Cloudy